Regional Weather Roundup
Issued by NWS Northern Indiana

Home | Current Version | Previous Version | Text Only | Print | Product List | Glossary On
Versions: 1 2 3 4 5 6 7 8 9 10 11 12 13 14 15 16 17 18 19 20 21 22 23 24 25 26 27 28 29 30 31 32 33 34 35 36 37 38 39 40 41 42 43 44 45 46 47 48 49 50
000
ASUS43 KIWX 291910
RWRIWX

KIWX WEATHER ROUNDUP
NATIONAL WEATHER SERVICE NORTHERN INDIANA
300 PM EDT SAT AUG 29 2015

NOTE: "FAIR" INDICATES FEW OR NO CLOUDS BELOW 12,000 FEET WITH NO
SIGNIFICANT WEATHER AND/OR OBSTRUCTIONS TO VISIBILITY.

* THESE STATIONS ARE NOT UNDER NWS QUALITY CONTROL. THEY ALSO MAY NOT
  REPORT WEATHER SUCH AS PRECIPITATION OR FOG.

INZ001>027-292000-
NORTHERN INDIANA

CITY           SKY/WX    TMP DP  RH WIND       PRES   REMARKS
GARY*          CLOUDY    75  64  69 MISG      30.02F
VALPARAISO     CLOUDY    72  67  84 SE8       30.04F
MICHIGAN CITY* CLOUDY    70  68  94 S6        30.03F
LAPORTE*       CLOUDY    72  71  99 S7        30.04F
KNOX*          CLOUDY    68  68 100 CALM      30.06S
SOUTH BEND     CLOUDY    69  66  90 S7        30.05F
ELKHART*       CLOUDY    68  66  94 S7        30.06F FOG
GOSHEN         LGT RAIN  71  67  87 NE3       30.08R FOG
MONTICELLO*    CLOUDY    79  67  67 S6        30.05S
LOGANSPORT*    CLOUDY    77  61  57 S7        30.08R
ROCHESTER*     CLOUDY    81  68  65 SE6       30.07S
WARSAW*        LGT RAIN  73  66  78 S3        30.08R
ANGOLA*        MOSUNNY   70  63  78 CALM      30.09R
FORT WAYNE     CLOUDY    79  67  66 CALM      30.08F
HUNTINGTON*    CLOUDY    78  63  60 SW5       30.07S
PERU/GRISSOM   CLOUDY    78  67  69 SW7       30.06F
MARION*        CLOUDY    78  58  50 SW9       30.08F

$$
INZ028>050-292000-
CENTRAL INDIANA

CITY           SKY/WX    TMP DP  RH WIND       PRES   REMARKS
LAFAYETTE      CLOUDY    80  66  62 S7        30.05S
KOKOMO*        CLOUDY    81  68  65 SW6       30.07F
MUNCIE*        CLOUDY    79  65  62 SW8       30.08F
INDIANAPOLIS   CLOUDY    79  66  64 S9        30.07F

$$
MIZ043>046-050>051-056>058-064>065-071>073-077>080-292000-
SOUTHWEST LOWER MICHIGAN

CITY           SKY/WX    TMP DP  RH WIND       PRES   REMARKS
BATTLE CREEK   CLOUDY    69  64  84 E7        30.08F
BENTON HARBOR  CLOUDY    68  65  90 E5        30.04S
COLDWATER*     LGT RAIN  72  67  85 CALM      30.07F
HILLSDALE*     CLOUDY    74  67  77 CALM      30.09S
HOLLAND        CLOUDY    67  63  87 E7        30.07F
GRAND RAPIDS   LGT RAIN  66  64  93 NE6       30.09S
KALAMAZOO      LGT RAIN  69  63  81 E5        30.07F
STURGIS*       DRIZZLE   70  66  88 SE12      30.04F
THREE RIVERS*  PTSUNNY   68  66  93 NE6       30.07F

$$
OHZ001>008-015>018-024>025-292000-
NORTHWEST OHIO

CITY           SKY/WX    TMP DP  RH WIND       PRES   REMARKS
WAUSEON*       FAIR      77  68  73 S7        30.07F
DEFIANCE       CLOUDY    77  65  66 S7        30.08S
FINDLAY        PTSUNNY   82  66  58 S3        30.07F
TOLEDO EXPRESS CLOUDY    77  64  64 VRB3      30.07F
TOLEDO METCALF PTSUNNY   80  63  55 S7        30.07F
LIMA           CLOUDY    80  66  62 S8        30.09F

$$
AND FOR LAKE MICHIGAN COASTAL AND OPEN LAKE BUOY OBSERVATIONS

STATION/POSITION TEMP    WIND        PRES    VSBY  WAVE
                 AIR SEA DIR/SP/G                  HT/PER
                 (F)     (DEG/KT/KT) (MB)    (MI)  (FT/S)
MICHIGAN CITY     69     130/ 10/ 11   N/A
BURNS HARBOR      72     180/  7/ 14 1017.6F
SAINT JOSEPH      68      30/  2/  3 1017.9S
SOUTH LAKE BUOY   67 68  120/ 14/ 14 1016.6F
4 MI NW BRIDGMAN  69 70  190/  4/  8   N/A           1/ 3
MICHIGAN CITY     71 71  190/ 10/ 14   N/A           1

$$
&&



USA.gov is the U.S. government's official web portal to all federal, state and local government web resources and services.